Chievres, Belgium

9:21 AM CEST on July 26, 2017 (GMT +0200)
Chievres Air Base

Weather History for EBCV - October, 2012

Change the Weather History Date:

Monday, October 15, 2012

  Actual Average Record
Temperature  
Mean Temperature 50 °F -  
Max Temperature 55 °F 50 °F 64 °F (2006)
Min Temperature 44 °F 42 °F 33 °F (2011)
Degree Days  
Heating Degree Days 16    
Moisture  
Dew Point 44 °F    
Average Humidity 84    
Maximum Humidity 100    
Minimum Humidity 57    
Precipitation  
Precipitation 0.00 in - - ()
Sea Level Pressure  
Sea Level Pressure 29.64 in    
Wind  
Wind Speed 11 mph ()    
Max Wind Speed 17 mph    
Max Gust Speed -    
Visibility 6.9 miles    
Events Rain    
Averages and records for this station are not official NWS values.
T = Trace of Precipitation, MM = Missing Value Source: Averaged Metar Reports

Daily Weather History Graph

Daily Weather History Graph

Search for Another Location

Airport or City:

Trip Planner

Search our weather history database for the weather conditions in past years. The results will help you decide how hot, cold, wet, or windy it might be!

Date:

Astronomy

Oct. 15, 2012 Rise Set
Actual Time 8:07 AM CEST 6:52 PM CEST
Civil Twilight 7:34 AM CEST 7:25 PM CEST
Nautical Twilight 6:56 AM CEST 8:02 PM CEST
Astronomical Twilight 6:18 AM CEST 8:40 PM CEST
Moon 8:03 AM CEST (10/15) 6:33 PM CEST (10/15)
Length of Visible Light 11h 50m
Length of Day
10h 44m
Waning Crescent, 0% of the Moon is Illuminated
Oct 15
Waning Crescent
Oct 15
New
Oct 22
First Quarter
Oct 29
Full
Nov 7
Last Quarter

Hourly Weather History & Observations

Time (CEST) Temp. Windchill Dew Point Humidity Pressure Visibility Wind Dir Wind Speed Gust Speed Precip Events Conditions
12:25 AM 44.6 °F 39.7 °F 41.0 °F 87% 29.50 in 6.2 mi WSW 9.2 mph - N/A   Scattered Clouds
1:22 AM 44.6 °F 38.8 °F 42.8 °F 93% 29.50 in 4.3 mi SW 11.5 mph - N/A Rain Light Rain Showers
1:28 AM 44.6 °F 38.8 °F 42.8 °F 93% 29.50 in - SW 11.5 mph - N/A Rain Light Rain Showers
1:34 AM 44.6 °F 38.4 °F 42.8 °F 93% 29.50 in 3.1 mi SW 12.7 mph - N/A Rain Light Rain Showers
1:40 AM 44.6 °F 38.4 °F 42.8 °F 93% 29.50 in 2.8 mi SW 12.7 mph - N/A Rain Light Rain Showers
2:00 AM 45 °F - 44 °F 93% 29.51 in 4 mi SW 13.4 mph - - Rain Light Rain Showers
2:25 AM 44.6 °F 38.4 °F 44.6 °F 100% 29.50 in 3.1 mi SW 12.7 mph - N/A Rain Light Rain Showers
3:25 AM 46.4 °F 41.1 °F 44.6 °F 93% 29.50 in 5.6 mi West 11.5 mph - N/A Rain Light Rain Showers
4:25 AM 48.2 °F - 46.4 °F 93% 29.53 in 5.6 mi West 13.8 mph - N/A Rain Light Rain Showers
4:37 AM 48.2 °F - 46.4 °F 93% 29.53 in 6.2 mi WNW 12.7 mph - N/A Rain Light Rain Showers
4:47 AM 48.2 °F - 46.4 °F 93% 29.53 in 6.2 mi WNW 13.8 mph - N/A Rain Light Rain Showers
5:00 AM 48 °F - 45 °F 86% 29.56 in 14 mi WNW 15.7 mph - - Rain Light Rain Showers
5:25 AM 46.4 °F 40.1 °F 44.6 °F 93% 29.56 in 6.2 mi WNW 15.0 mph - N/A Rain Rain
5:42 AM 46.4 °F 40.4 °F 44.6 °F 93% 29.59 in 4.3 mi West 13.8 mph - N/A Rain Rain
6:25 AM 46.4 °F 42.4 °F 46.4 °F 100% 29.59 in 4.3 mi West 8.1 mph - N/A Rain Rain
6:53 AM 46.4 °F 41.5 °F 44.6 °F 93% 29.62 in 6.2 mi West 10.4 mph - N/A   Mostly Cloudy
7:25 AM 46.4 °F 41.9 °F 44.6 °F 93% 29.62 in 6.2 mi West 9.2 mph - N/A   Mostly Cloudy
8:00 AM 46 °F - 43 °F 87% 29.66 in 9 mi West 8.9 mph - -   Partly Cloudy
8:25 AM 44.6 °F 40.2 °F 42.8 °F 93% 29.65 in 6.2 mi West 8.1 mph - N/A   Partly Cloudy
9:25 AM 44.6 °F 40.2 °F 42.8 °F 93% 29.68 in 6.2 mi WSW 8.1 mph - N/A   Partly Cloudy
10:25 AM 46.4 °F 41.9 °F 42.8 °F 87% 29.71 in 6.2 mi West 9.2 mph - N/A   Clear
11:00 AM 48 °F - 43 °F 78% 29.74 in 10 mi WSW 6.7 mph - -  
11:25 AM 50.0 °F - 44.6 °F 82% 29.71 in 6.2 mi WSW 9.2 mph - N/A   Clear
12:25 PM 51.8 °F - 42.8 °F 71% 29.71 in 6.2 mi SSW 11.5 mph - N/A   Clear
1:25 PM 51.8 °F - 41.0 °F 67% 29.74 in 6.2 mi SW 15.0 mph - N/A   Clear
2:00 PM 53 °F - 42 °F 57% 29.74 in 15 mi SSW 15.7 mph - -  
2:25 PM 53.6 °F - 44.6 °F 72% 29.71 in 6.2 mi SSW 13.8 mph - N/A   Partly Cloudy
3:25 PM 55.4 °F - 42.8 °F 63% 29.71 in 6.2 mi SSW 17.3 mph - N/A   Partly Cloudy
4:25 PM 55.4 °F - 42.8 °F 63% 29.71 in 6.2 mi SSW 15.0 mph - N/A   Mostly Cloudy
5:00 PM 54 °F - 44 °F 59% 29.73 in 28 mi SSW 15.7 mph - -   Mostly Cloudy
5:25 PM 53.6 °F - 44.6 °F 72% 29.71 in 6.2 mi SW 15.0 mph - N/A   Mostly Cloudy
6:25 PM 51.8 °F - 46.4 °F 82% 29.71 in 6.2 mi SSW 10.4 mph - N/A   Mostly Cloudy
7:25 PM 51.8 °F - 46.4 °F 82% 29.74 in 6.2 mi South 10.4 mph - N/A Rain Light Rain Showers
8:00 PM 51 °F - 46 °F 77% 29.75 in 19 mi SSW 13.4 mph - - Rain Light Rain Showers
8:25 PM 51.8 °F - 46.4 °F 82% 29.74 in 6.2 mi South 15.0 mph - N/A   Mostly Cloudy
9:25 PM 51.8 °F - 44.6 °F 76% 29.74 in 6.2 mi South 11.5 mph - N/A   Mostly Cloudy
10:25 PM 50.0 °F - 44.6 °F 82% 29.77 in 6.2 mi South 12.7 mph - N/A   Scattered Clouds
11:00 PM 50 °F - 44 °F 75% 29.77 in 16 mi South 15.7 mph - -   Clear
11:25 PM 50.0 °F - 44.6 °F 82% 29.74 in 6.2 mi South 15.0 mph - N/A   Scattered Clouds